Wind_Speed
81 80 79 79 78 81 83 85 86 85 86 86 88 93 93 87 73 62 60 58 52 46 42 33 29 28 27 26 24 22 23 25 24 23 27 25 24 24 24 22 20 20 20
78 78 79 80 82 84 86 86 87 89 90 93 93 91 81 70 55 54 50 47 45 42 39 33 29 30 29 28 28 27 27 26 27 24 23 26 27 26 24 22 21 20 20
78 79 81 83 85 86 86 89 91 92 91 89 80 69 61 55 53 48 48 46 44 40 36 33 31 33 34 33 32 32 32 31 30 32 29 26 27 27 28 27 23 20 19
81 83 85 85 85 87 90 93 91 84 77 67 62 60 60 56 54 53 51 50 48 45 41 37 37 38 40 40 40 40 38 38 37 36 36 33 32 29 31 30 30 29 24
83 84 86 89 91 89 84 75 70 67 67 67 68 68 67 64 62 59 58 56 53 52 50 49 48 47 47 47 47 47 47 46 44 43 43 42 40 35 33 34 34 30 31
88 88 83 79 74 74 73 73 71 71 72 72 72 72 71 70 67 65 63 63 61 59 58 56 57 56 55 55 55 56 54 53 53 50 50 49 48 44 40 39 38 35 34
69 67 69 71 71 71 72 73 73 72 73 72 73 72 71 70 71 72 71 69 67 66 66 67 65 65 64 64 63 63 63 61 59 57 58 58 56 53 48 46 42 42 40
63 63 63 63 65 64 65 66 67 68 72 77 78 80 80 78 78 77 75 76 76 76 74 72 73 73 72 72 74 73 73 71 69 68 67 67 64 61 56 54 52 48 46
66 68 69 69 70 71 73 75 76 76 76 78 78 83 85 85 84 83 83 83 84 83 83 82 80 79 79 79 79 80 81 80 78 76 74 74 73 70 67 63 61 57 56
75 76 76 76 77 78 79 81 82 83 84 86 86 85 86 88 89 90 89 88 88 88 88 89 91 91 89 88 87 86 86 85 83 83 82 82 80 79 76 72 70 66 64
82 82 83 84 83 83 85 86 87 89 90 91 93 92 91 92 93 93 93 94 93 95 95 94 94 94 95 97 96 94 94 94 93 92 90 88 85 83 82 80 79 76 74
87 86 87 87 88 89 90 91 92 92 93 93 94 95 96 96 95 95 97 99 98 99 100 102 102 102 101 101 98 96 94 94 95 97 98 97 93 90 87 85 82 81 81
86 86 87 87 89 91 93 93 93 95 95 95 95 95 96 98 98 98 98 100 103 104 104 107 108 109 106 104 101 99 96 94 91 91 93 95 95 97 94 91 90 90 85
87 87 89 91 92 93 94 94 96 97 96 96 95 94 94 97 99 102 103 104 105 106 107 108 109 108 107 106 102 97 93 90 88 87 86 86 87 88 89 90 91 91 92
91 92 93 94 96 97 99 98 98 99 100 102 98 96 97 100 103 105 107 109 110 110 108 106 106 104 101 101 98 96 91 87 86 85 84 86 87 85 84 82 82 83 84
95 97 98 99 102 100 101 102 104 104 102 101 100 102 106 106 107 108 110 108 106 103 100 97 94 93 94 93 94 94 93 90 88 85 84 85 88 89 87 84 82 81 81
97 100 101 102 102 104 103 104 106 107 103 105 107 108 110 109 109 109 107 105 103 99 97 93 91 90 89 90 91 92 93 92 89 87 86 86 86 87 89 87 87 86 85
101 99 102 102 102 104 103 105 109 107 106 111 114 111 110 109 106 105 101 97 96 94 88 86 84 84 85 84 87 87 88 90 89 88 87 87 86 87 87 87 88 88 87
99 100 101 102 103 103 105 108 109 111 111 109 109 111 113 111 105 100 96 93 89 87 85 82 81 79 79 80 81 81 82 84 85 86 86 85 86 86 87 89 90 90 90
100 102 104 104 105 107 110 111 110 109 108 106 105 107 107 105 103 101 97 91 86 82 81 79 78 76 74 74 74 73 74 78 79 80 81 82 83 84 84 85 86 88 89
104 105 105 106 108 109 107 106 106 105 104 103 102 102 101 98 96 93 90 87 82 77 73 71 72 72 73 72 70 70 70 70 72 74 75 77 78 79 80 80 81 81 82
107 108 108 109 105 102 102 100 100 99 98 96 95 93 93 90 87 82 80 79 78 76 73 70 68 67 68 68 68 67 67 69 70 70 71 73 74 75 75 76 77 77 78
104 103 102 99 97 96 95 95 93 93 92 90 88 86 86 85 82 79 76 75 72 71 68 65 65 65 63 63 62 61 62 64 66 67 68 68 69 70 71 71 71 71 71
97 94 91 89 89 88 88 88 88 87 84 81 81 79 77 75 74 73 71 67 64 62 61 60 59 58 57 57 56 56 57 58 59 61 62 64 65 66 66 66 66 66 66
87 86 85 85 85 84 82 79 76 74 73 72 70 70 69 69 68 65 61 58 56 55 53 52 51 51 51 50 50 49 50 52 54 54 55 56 57 58 58 58 59 60 60
81 81 80 78 75 71 67 67 65 65 65 65 65 64 63 62 60 57 55 53 50 48 47 47 46 46 45 44 43 44 44 46 47 48 48 48 48 48 49 50 51 53 54
Wind_Direction
280 281 282 283 284 286 288 290 293 293 293 294 295 296 298 301 302 301 302 301 301 300 297 288 275 276 283 290 298 306 314 320 326 327 324 325 329 325 320 313 302 297 290
279 280 282 284 285 287 289 290 290 292 292 295 298 297 299 301 300 302 302 299 299 301 298 283 271 272 279 285 292 296 299 306 308 312 317 313 313 314 319 320 317 310 296
279 280 281 283 285 286 287 289 291 292 294 295 297 296 299 301 302 300 298 298 298 300 299 288 275 272 278 281 283 288 293 296 298 301 306 306 306 305 302 302 305 314 314
278 280 281 282 285 287 288 288 290 292 292 294 295 294 295 295 295 295 295 296 295 295 292 287 281 276 277 280 281 282 284 286 290 291 295 301 298 303 298 293 292 294 295
279 282 283 283 284 285 287 287 290 290 290 291 291 292 291 291 290 290 290 290 289 289 288 286 282 278 277 277 278 279 280 281 282 286 289 292 296 296 296 292 287 284 285
278 280 280 282 281 283 284 285 288 289 290 290 290 289 289 289 288 287 286 284 283 282 281 279 279 278 278 278 277 277 277 278 280 282 283 285 288 289 287 288 287 283 282
280 282 283 283 284 284 284 284 284 284 284 285 286 286 285 282 284 284 283 282 280 278 278 277 275 274 274 274 274 275 276 276 275 278 279 280 282 282 282 283 283 279 276
278 280 282 283 283 283 284 286 288 289 288 283 281 281 282 282 281 282 281 279 278 278 277 274 273 273 272 271 272 272 272 272 273 273 273 275 276 277 277 277 276 275 274
279 280 281 282 283 284 284 285 287 285 287 287 286 283 282 280 280 280 278 278 278 274 273 272 270 270 270 267 268 269 271 271 271 271 271 272 273 273 274 274 271 271 270
278 279 280 280 281 282 283 284 285 284 284 284 283 281 281 280 278 278 277 276 277 277 273 271 270 270 271 269 269 269 268 269 268 268 268 269 269 270 270 270 270 269 268
279 279 280 281 281 282 283 283 284 286 286 286 284 283 281 280 278 276 275 276 276 275 274 272 271 270 269 270 270 270 269 268 268 267 267 266 265 266 267 266 265 265 266
282 281 281 281 281 282 283 284 285 285 287 288 285 283 280 280 279 277 275 274 273 272 272 272 271 271 271 271 271 271 271 269 269 268 265 267 266 265 263 264 264 264 262
284 284 283 284 284 284 285 283 285 285 286 287 283 281 279 280 278 277 275 273 273 272 271 271 272 274 276 276 277 276 274 274 274 271 270 268 267 266 265 264 264 263 260
286 286 287 287 287 285 284 284 286 288 288 287 282 280 280 279 279 277 276 275 273 271 271 271 272 273 274 275 276 275 273 271 269 268 268 268 268 268 266 265 264 264 264
288 287 286 286 286 284 283 284 285 286 286 285 284 282 281 281 281 280 278 278 278 279 277 275 274 274 273 272 271 272 271 270 268 266 267 267 268 267 266 265 264 263 261
288 288 287 286 285 284 284 284 285 285 285 284 282 282 282 281 281 281 281 281 281 280 281 280 279 275 272 271 269 269 269 268 268 268 267 266 265 265 264 264 264 263 261
286 285 285 286 284 282 284 285 284 287 286 285 285 283 282 281 281 282 281 281 282 282 282 281 279 277 274 271 270 268 267 267 266 266 265 265 264 264 263 264 264 263 262
282 283 282 285 284 283 284 284 284 284 284 286 285 285 283 283 283 283 283 282 282 283 282 281 280 278 276 274 271 269 268 267 267 266 264 263 261 261 262 262 263 262 262
283 282 283 283 282 283 282 283 283 284 285 285 283 283 284 284 285 286 286 286 285 283 283 282 281 279 277 274 271 270 268 267 266 265 264 263 262 260 259 260 261 261 262
284 284 284 284 284 284 284 284 283 285 284 283 283 282 282 284 286 287 287 286 286 284 283 283 282 279 276 273 270 269 267 266 265 265 264 263 262 262 261 260 259 259 260
285 284 284 284 283 284 284 284 284 285 284 282 283 284 285 286 285 285 285 286 286 284 281 279 277 276 275 273 270 269 267 265 264 263 263 262 261 260 260 259 260 259 259
284 285 285 285 285 285 284 285 284 283 283 283 284 286 286 286 285 285 284 283 283 283 282 281 279 275 272 270 269 267 266 265 264 263 261 261 261 261 261 261 261 262 261
283 283 283 285 286 285 284 283 283 283 284 286 286 284 284 284 285 284 283 283 283 283 282 279 277 275 273 272 271 269 266 265 263 263 262 263 262 262 262 263 263 263 263
283 283 285 284 283 282 282 283 283 284 286 285 284 284 283 282 283 283 284 286 285 283 281 279 277 276 275 274 273 271 268 266 264 262 262 262 263 264 264 264 265 266 266
284 283 282 281 281 281 283 285 286 285 284 285 284 283 283 284 285 287 287 286 285 282 281 280 278 277 275 274 273 270 268 266 265 264 264 263 264 265 265 265 265 265 265
281 281 282 284 285 286 285 284 285 285 284 284 283 284 284 285 287 288 286 285 285 284 283 281 280 278 277 276 273 271 269 268 267 266 266 266 265 264 263 262 261 262 262
Height
10650 10647 10643 10639 10635 10632 10627 10622 10617 10613 10607 10602 10595 10587 10584 10576 10569 10561 10556 10551 10546 10544 10539 10536 10536 10535 10535 10532 10529 10527 10524 10519 10517 10513 10507 10504 10502 10499 10498 10497 10496 10495 10495
10634 10631 10627 10624 10620 10616 10612 10606 10600 10595 10590 10584 10577 10570 10565 10560 10554 10549 10544 10541 10537 10535 10531 10527 10527 10527 10526 10524 10521 10520 10518 10515 10511 10509 10507 10502 10498 10496 10494 10492 10490 10489 10489
10619 10615 10611 10608 10604 10599 10594 10589 10583 10578 10571 10565 10560 10554 10551 10547 10544 10539 10536 10533 10529 10526 10524 10520 10519 10519 10517 10516 10513 10511 10509 10508 10505 10502 10501 10499 10495 10492 10489 10487 10486 10484 10482
10600 10597 10593 10589 10585 10581 10575 10569 10564 10558 10553 10549 10545 10542 10538 10535 10532 10529 10526 10523 10520 10518 10515 10512 10510 10509 10507 10506 10504 10502 10501 10498 10496 10494 10491 10491 10489 10488 10483 10481 10479 10477 10477
10582 10579 10575 10570 10565 10560 10555 10550 10545 10541 10538 10534 10531 10528 10525 10522 10519 10516 10513 10510 10508 10506 10504 10502 10499 10497 10495 10493 10491 10489 10488 10487 10486 10485 10481 10480 10479 10480 10477 10474 10470 10470 10468
10563 10558 10554 10549 10544 10541 10537 10533 10529 10524 10520 10516 10512 10509 10506 10503 10500 10498 10495 10494 10492 10490 10488 10486 10483 10482 10481 10478 10476 10474 10473 10473 10472 10472 10470 10468 10467 10467 10467 10465 10463 10461 10459
10543 10539 10535 10531 10527 10523 10519 10514 10510 10506 10502 10498 10494 10490 10487 10483 10481 10478 10476 10473 10471 10470 10468 10466 10464 10464 10463 10460 10458 10457 10455 10455 10456 10457 10455 10451 10452 10454 10454 10453 10452 10449 10448
10526 10522 10518 10514 10509 10504 10499 10495 10490 10486 10482 10477 10473 10469 10465 10463 10460 10457 10454 10451 10448 10446 10445 10443 10441 10440 10441 10440 10437 10436 10435 10434 10436 10437 10435 10432 10435 10435 10437 10438 10437 10437 10436
10509 10505 10500 10496 10490 10485 10481 10476 10471 10465 10461 10456 10452 10447 10442 10439 10436 10433 10429 10425 10423 10420 10420 10419 10416 10414 10413 10414 10414 10412 10410 10410 10414 10413 10413 10412 10412 10413 10416 10419 10417 10421 10418
10490 10485 10480 10474 10469 10464 10459 10454 10449 10443 10438 10432 10427 10423 10419 10413 10410 10408 10404 10399 10396 10392 10392 10389 10387 10385 10384 10385 10385 10385 10384 10383 10384 10386 10388 10388 10388 10389 10391 10396 10396 10398 10399
10468 10463 10457 10452 10446 10441 10436 10431 10425 10419 10412 10407 10399 10395 10391 10387 10382 10379 10375 10371 10370 10364 10361 10359 10358 10357 10355 10353 10354 10355 10356 10356 10356 10358 10357 10358 10361 10363 10365 10369 10370 10374 10376
10445 10439 10433 10428 10423 10417 10411 10405 10400 10393 10386 10379 10373 10365 10360 10356 10353 10348 10344 10341 10338 10335 10330 10325 10323 10321 10320 10319 10320 10322 10324 10324 10324 10323 10325 10325 10329 10334 10337 10339 10343 10346 10351
10418 10412 10407 10402 10396 10390 10383 10376 10370 10365 10359 10351 10344 10338 10329 10322 10319 10318 10314 10310 10306 10303 10300 10295 10291 10288 10287 10286 10286 10289 10292 10293 10294 10294 10292 10292 10296 10300 10304 10308 10312 10316 10320
10387 10381 10376 10370 10365 10359 10353 10347 10341 10334 10327 10321 10314 10310 10302 10293 10284 10281 10276 10271 10267 10266 10267 10263 10259 10257 10255 10254 10253 10254 10257 10260 10262 10262 10264 10263 10265 10268 10271 10276 10280 10285 10290
10356 10351 10346 10340 10333 10326 10320 10315 10309 10302 10298 10290 10281 10276 10269 10261 10251 10246 10241 10233 10229 10227 10230 10227 10225 10224 10223 10222 10222 10221 10222 10226 10230 10234 10235 10235 10234 10237 10240 10244 10249 10253 10259
10325 10319 10313 10306 10300 10294 10288 10279 10273 10270 10261 10253 10246 10240 10231 10225 10221 10213 10204 10199 10195 10189 10191 10189 10188 10186 10187 10187 10188 10189 10190 10193 10196 10200 10204 10207 10206 10207 10210 10213 10218 10222 10228
10294 10286 10281 10275 10267 10260 10255 10251 10245 10228 10225 10216 10205 10199 10192 10190 10185 10179 10172 10167 10162 10159 10158 10155 10154 10152 10153 10154 10154 10155 10156 10158 10164 10168 10171 10174 10176 10178 10178 10183 10187 10192 10196
10262 10256 10250 10241 10233 10226 10219 10215 10209 10203 10194 10180 10161 10157 10150 10147 10146 10140 10135 10135 10132 10125 10125 10125 10122 10120 10120 10121 10120 10122 10125 10126 10128 10133 10138 10142 10145 10149 10151 10152 10155 10159 10164
10231 10225 10219 10210 10201 10193 10185 10179 10171 10164 10156 10150 10141 10125 10108 10107 10107 10105 10101 10099 10100 10097 10093 10092 10091 10091 10091 10091 10090 10091 10093 10093 10095 10099 10104 10108 10112 10117 10122 10123 10125 10127 10130
10198 10192 10185 10176 10167 10158 10150 10141 10132 10125 10119 10113 10107 10096 10088 10080 10074 10071 10069 10067 10065 10066 10064 10062 10059 10059 10059 10059 10059 10061 10062 10063 10065 10068 10071 10075 10078 10083 10088 10092 10095 10098 10100
10163 10155 10148 10142 10132 10123 10114 10106 10098 10092 10085 10077 10071 10062 10056 10056 10052 10047 10041 10034 10033 10032 10033 10034 10033 10030 10028 10028 10030 10032 10034 10035 10037 10038 10041 10044 10047 10052 10056 10060 10063 10068 10073
10126 10120 10111 10103 10096 10089 10083 10074 10065 10057 10050 10045 10041 10037 10027 10024 10019 10018 10014 10010 10006 10004 10004 10005 10005 10003 10002 10001 10003 10005 10007 10007 10008 10011 10014 10017 10020 10024 10028 10033 10036 10041 10045
10092 10085 10078 10072 10066 10058 10050 10041 10034 10026 10021 10018 10014 10010 10002 9996 9992 9989 9987 9984 9983 9981 9979 9980 9979 9977 9977 9978 9979 9980 9981 9983 9984 9987 9990 9993 9997 10000 10003 10007 10011 10015 10019
10059 10055 10050 10044 10036 10028 10021 10014 10006 10001 9998 9994 9987 9982 9978 9973 9969 9965 9964 9963 9962 9960 9958 9957 9957 9956 9956 9956 9956 9957 9959 9960 9963 9965 9968 9970 9973 9976 9980 9984 9987 9991 9995
10032 10027 10020 10013 10008 10001 9997 9992 9986 9978 9971 9967 9964 9959 9955 9951 9948 9946 9945 9943 9941 9939 9938 9938 9937 9936 9935 9936 9936 9937 9938 9939 9941 9944 9948 9951 9953 9956 9960 9963 9966 9969 9972
10003 9997 9992 9988 9984 9978 9972 9967 9961 9956 9950 9946 9942 9939 9936 9933 9931 9930 9927 9924 9923 9922 9920 9919 9918 9918 9918 9919 9920 9920 9921 9922 9924 9926 9929 9932 9936 9939 9942 9945 9947 9949 9952